Time,TemperatureF,DewpointF,PressureIn,WindDirection,WindDirectionDegrees,WindSpeedMPH,WindSpeedGustMPH,Humidity,HourlyPrecipIn,Conditions,Clouds,dailyrainin,SolarRadiationWatts/m^2,SoftwareType,DateUTC
2013-02-18 00:00:00,22.5,8.7,30.22,WSW,258,1.0,5.0,55,0.00,,,0.00,0,Wunderground v.1.15,2013-02-18 05:00:00,
2013-02-18 00:10:00,22.4,8.7,30.23,WNW,298,2.0,2.0,55,0.00,,,0.00,0,Wunderground v.1.15,2013-02-18 05:10:00,
2013-02-18 00:20:00,22.3,8.2,30.23,West,272,1.0,2.0,54,0.00,,,0.00,0,Wunderground v.1.15,2013-02-18 05:20:00,
2013-02-18 00:30:00,22.3,7.7,30.24,NW,316,3.0,3.0,53,0.00,,,0.00,0,Wunderground v.1.15,2013-02-18 05:30:00,
2013-02-18 00:40:00,22.2,7.6,30.23,NW,318,2.0,2.0,53,0.00,,,0.00,0,Wunderground v.1.15,2013-02-18 05:40:00,
2013-02-18 00:50:00,22.1,7.6,30.24,WNW,284,2.0,2.0,53,0.00,,,0.00,0,Wunderground v.1.15,2013-02-18 05:50:00,
2013-02-18 01:00:00,22.0,7.5,30.24,West,281,1.0,1.0,53,0.00,,,0.00,0,Wunderground v.1.15,2013-02-18 06:00:00,
2013-02-18 01:10:00,21.8,7.3,30.24,West,265,1.0,2.0,53,0.00,,,0.00,0,Wunderground v.1.15,2013-02-18 06:10:00,
2013-02-18 01:20:00,21.7,7.6,30.24,NW,309,0.0,0.0,54,0.00,,,0.00,0,Wunderground v.1.15,2013-02-18 06:20:00,
2013-02-18 01:30:00,21.5,7.4,30.24,NW,309,0.0,0.0,54,0.00,,,0.00,0,Wunderground v.1.15,2013-02-18 06:30:00,
2013-02-18 01:40:00,21.4,7.3,30.24,WNW,303,1.0,1.0,54,0.00,,,0.00,0,Wunderground v.1.15,2013-02-18 06:40:00,
2013-02-18 01:50:00,21.3,7.2,30.24,WNW,298,1.0,1.0,54,0.00,,,0.00,0,Wunderground v.1.15,2013-02-18 06:50:00,
2013-02-18 02:00:00,21.3,7.6,30.24,NNW,345,1.0,1.0,55,0.00,,,0.00,0,Wunderground v.1.15,2013-02-18 07:00:00,
2013-02-18 02:10:00,21.3,7.2,30.24,WNW,298,2.0,2.0,54,0.00,,,0.00,0,Wunderground v.1.15,2013-02-18 07:10:00,
2013-02-18 02:20:00,21.3,7.2,30.25,West,269,0.0,0.0,54,0.00,,,0.00,0,Wunderground v.1.15,2013-02-18 07:20:00,
2013-02-18 02:30:00,21.3,7.6,30.26,NNW,344,0.0,0.0,55,0.00,,,0.00,0,Wunderground v.1.15,2013-02-18 07:30:00,
2013-02-18 02:40:00,21.1,7.4,30.26,WNW,290,0.0,0.0,55,0.00,,,0.00,0,Wunderground v.1.15,2013-02-18 07:40:00,
2013-02-18 02:50:00,21.0,7.3,30.25,WNW,296,0.0,0.0,55,0.00,,,0.00,0,Wunderground v.1.15,2013-02-18 07:50:00,
2013-02-18 03:00:00,20.7,7.5,30.25,West,262,0.0,0.0,56,0.00,,,0.00,0,Wunderground v.1.15,2013-02-18 08:00:00,
2013-02-18 03:10:00,20.7,7.5,30.25,NW,306,1.0,1.0,56,0.00,,,0.00,0,Wunderground v.1.15,2013-02-18 08:10:00,
2013-02-18 03:20:00,20.6,7.4,30.26,WSW,257,0.0,0.0,56,0.00,,,0.00,0,Wunderground v.1.15,2013-02-18 08:20:00,
2013-02-18 03:30:00,20.6,7.4,30.25,West,259,0.0,0.0,56,0.00,,,0.00,0,Wunderground v.1.15,2013-02-18 08:30:00,
2013-02-18 03:40:00,20.5,7.7,30.25,West,261,0.0,0.0,57,0.00,,,0.00,0,Wunderground v.1.15,2013-02-18 08:40:00,
2013-02-18 03:50:00,20.3,7.5,30.25,WSW,254,0.0,0.0,57,0.00,,,0.00,0,Wunderground v.1.15,2013-02-18 08:50:00,
2013-02-18 04:00:00,20.3,7.5,30.26,NNW,336,0.0,0.0,57,0.00,,,0.00,0,Wunderground v.1.15,2013-02-18 09:00:00,
2013-02-18 04:10:00,20.2,7.4,30.26,West,267,0.0,0.0,57,0.00,,,0.00,0,Wunderground v.1.15,2013-02-18 09:10:00,
2013-02-18 04:20:00,20.3,7.5,30.27,NW,312,0.0,0.0,57,0.00,,,0.00,0,Wunderground v.1.15,2013-02-18 09:20:00,
2013-02-18 04:30:00,20.3,7.9,30.28,West,259,0.0,0.0,58,0.00,,,0.00,0,Wunderground v.1.15,2013-02-18 09:30:00,
2013-02-18 04:40:00,20.2,7.8,30.28,West,261,0.0,0.0,58,0.00,,,0.00,0,Wunderground v.1.15,2013-02-18 09:40:00,
2013-02-18 04:50:00,20.1,7.7,30.28,West,261,0.0,0.0,58,0.00,,,0.00,0,Wunderground v.1.15,2013-02-18 09:50:00,
2013-02-18 05:00:00,19.9,7.5,30.29,West,261,0.0,0.0,58,0.00,,,0.00,0,Wunderground v.1.15,2013-02-18 10:00:00,
2013-02-18 05:10:00,19.8,7.8,30.29,West,261,0.0,0.0,59,0.00,,,0.00,0,Wunderground v.1.15,2013-02-18 10:10:00,
2013-02-18 05:20:00,19.7,7.7,30.30,West,261,0.0,0.0,59,0.00,,,0.00,0,Wunderground v.1.15,2013-02-18 10:20:00,
2013-02-18 05:30:00,19.3,7.7,30.30,West,261,0.0,0.0,60,0.00,,,0.00,0,Wunderground v.1.15,2013-02-18 10:30:00,
2013-02-18 05:40:00,19.0,7.7,30.30,West,261,0.0,0.0,61,0.00,,,0.00,0,Wunderground v.1.15,2013-02-18 10:40:00,
2013-02-18 05:50:00,19.0,8.1,30.31,West,261,0.0,0.0,62,0.00,,,0.00,0,Wunderground v.1.15,2013-02-18 10:50:00,
2013-02-18 06:00:00,19.0,8.1,30.32,West,269,0.0,0.0,62,0.00,,,0.00,0,Wunderground v.1.15,2013-02-18 11:00:00,
2013-02-18 06:10:00,19.2,8.3,30.32,West,269,0.0,0.0,62,0.00,,,0.00,0,Wunderground v.1.15,2013-02-18 11:10:00,
2013-02-18 06:20:00,19.1,8.2,30.33,West,269,0.0,0.0,62,0.00,,,0.00,0,Wunderground v.1.15,2013-02-18 11:20:00,
2013-02-18 06:30:00,18.8,7.9,30.33,West,269,0.0,0.0,62,0.00,,,0.00,0,Wunderground v.1.15,2013-02-18 11:30:00,
2013-02-18 06:40:00,18.4,7.9,30.33,West,269,0.0,0.0,63,0.00,,,0.00,0,Wunderground v.1.15,2013-02-18 11:40:00,
2013-02-18 06:50:00,18.0,7.5,30.33,West,269,0.0,0.0,63,0.00,,,0.00,0,Wunderground v.1.15,2013-02-18 11:50:00,
2013-02-18 07:00:00,17.5,7.4,30.33,West,269,0.0,0.0,64,0.00,,,0.00,5,Wunderground v.1.15,2013-02-18 12:00:00,
2013-02-18 07:10:00,17.1,7.3,30.33,West,269,0.0,0.0,65,0.00,,,0.00,9,Wunderground v.1.15,2013-02-18 12:10:00,
2013-02-18 07:30:00,16.8,9.0,30.34,West,269,0.0,0.0,71,0.00,,,0.00,37,Wunderground v.1.15,2013-02-18 12:30:00,
2013-02-18 07:40:00,17.5,10.3,30.35,West,269,0.0,0.0,73,0.00,,,0.00,62,Wunderground v.1.15,2013-02-18 12:40:00,
2013-02-18 07:50:00,19.7,11.5,30.35,West,268,0.0,0.0,70,0.00,,,0.00,90,Wunderground v.1.15,2013-02-18 12:50:00,
2013-02-18 08:00:00,20.5,11.3,30.36,WSW,247,0.0,0.0,67,0.00,,,0.00,121,Wunderground v.1.15,2013-02-18 13:00:00,
2013-02-18 08:10:00,21.6,10.9,30.37,SSW,202,0.0,0.0,63,0.00,,,0.00,162,Wunderground v.1.15,2013-02-18 13:10:00,
2013-02-18 08:20:00,22.4,11.3,30.37,SW,225,0.0,1.0,62,0.00,,,0.00,199,Wunderground v.1.15,2013-02-18 13:20:00,
2013-02-18 08:30:00,22.7,11.3,30.37,WSW,243,1.0,1.0,61,0.00,,,0.00,232,Wunderground v.1.15,2013-02-18 13:30:00,
2013-02-18 08:40:00,23.5,11.3,30.37,SW,214,1.0,3.0,59,0.00,,,0.00,267,Wunderground v.1.15,2013-02-18 13:40:00,
2013-02-18 08:50:00,24.3,10.8,30.37,WSW,248,2.0,3.0,56,0.00,,,0.00,297,Wunderground v.1.15,2013-02-18 13:50:00,
2013-02-18 09:00:00,24.5,10.6,30.37,WSW,254,2.0,2.0,55,0.00,,,0.00,327,Wunderground v.1.15,2013-02-18 14:00:00,
2013-02-18 09:10:00,25.3,11.0,30.37,WSW,252,3.0,4.0,54,0.00,,,0.00,353,Wunderground v.1.15,2013-02-18 14:10:00,
2013-02-18 09:20:00,25.6,10.4,30.36,SW,236,4.0,6.0,52,0.00,,,0.00,383,Wunderground v.1.15,2013-02-18 14:20:00,
2013-02-18 09:30:00,26.2,10.1,30.37,West,263,2.0,2.0,50,0.00,,,0.00,410,Wunderground v.1.15,2013-02-18 14:30:00,
2013-02-18 09:40:00,27.2,11.0,30.37,WSW,251,3.0,10.0,50,0.00,,,0.00,436,Wunderground v.1.15,2013-02-18 14:40:00,
2013-02-18 09:50:00,27.2,11.4,30.36,WSW,238,3.0,7.0,51,0.00,,,0.00,459,Wunderground v.1.15,2013-02-18 14:50:00,
2013-02-18 10:00:00,27.8,11.5,30.36,West,261,3.0,3.0,50,0.00,,,0.00,485,Wunderground v.1.15,2013-02-18 15:00:00,
2013-02-18 10:09:00,28.1,10.9,30.36,WSW,248,2.0,2.0,48,0.00,,,0.00,504,Wunderground v.1.15,2013-02-18 15:09:00,
2013-02-18 10:20:00,28.8,10.6,30.36,WSW,252,1.0,1.0,46,0.00,,,0.00,508,Wunderground v.1.15,2013-02-18 15:20:00,
2013-02-18 10:30:00,29.3,11.1,30.36,West,259,2.0,2.0,46,0.00,,,0.00,533,Wunderground v.1.15,2013-02-18 15:30:00,
2013-02-18 10:40:00,29.4,11.6,30.35,West,259,1.0,1.0,47,0.00,,,0.00,564,Wunderground v.1.15,2013-02-18 15:40:00,
2013-02-18 11:00:00,30.1,11.3,30.34,NW,321,1.0,1.0,45,0.00,,,0.00,596,Wunderground v.1.15,2013-02-18 16:00:00,
2013-02-18 11:20:00,31.6,12.7,30.33,NNW,329,0.0,0.0,45,0.00,,,0.00,622,Wunderground v.1.15,2013-02-18 16:20:00,
2013-02-18 11:30:00,31.4,12.0,30.33,SSE,165,1.0,1.0,44,0.00,,,0.00,636,Wunderground v.1.15,2013-02-18 16:30:00,
2013-02-18 11:50:00,33.0,12.4,30.32,SW,232,1.0,1.0,42,0.00,,,0.00,74,Wunderground v.1.15,2013-02-18 16:50:00,
2013-02-18 12:00:00,32.8,12.7,30.31,NNW,334,1.0,1.0,43,0.00,,,0.00,91,Wunderground v.1.15,2013-02-18 17:00:00,
2013-02-18 12:10:00,33.7,13.5,30.31,West,259,0.0,0.0,43,0.00,,,0.00,65,Wunderground v.1.15,2013-02-18 17:10:00,
2013-02-18 12:20:00,34.6,15.9,30.30,SSE,166,1.0,1.0,46,0.00,,,0.00,54,Wunderground v.1.15,2013-02-18 17:20:00,
2013-02-18 12:30:00,35.1,14.3,30.30,SSW,192,1.0,1.0,42,0.00,,,0.00,49,Wunderground v.1.15,2013-02-18 17:30:00,
2013-02-18 12:40:00,35.1,14.3,30.29,SE,126,1.0,3.0,42,0.00,,,0.00,49,Wunderground v.1.15,2013-02-18 17:40:00,
2013-02-18 12:50:00,36.1,15.7,30.28,SSW,208,1.0,1.0,43,0.00,,,0.00,49,Wunderground v.1.15,2013-02-18 17:50:00,
2013-02-18 13:00:00,36.7,14.6,30.27,WSW,237,1.0,2.0,40,0.00,,,0.00,49,Wunderground v.1.15,2013-02-18 18:00:00,
2013-02-18 13:10:00,37.0,14.9,30.27,SSW,213,1.0,1.0,40,0.00,,,0.00,47,Wunderground v.1.15,2013-02-18 18:10:00,
2013-02-18 13:20:00,37.1,15.5,30.26,East,85,2.0,2.0,41,0.00,,,0.00,49,Wunderground v.1.15,2013-02-18 18:20:00,
2013-02-18 13:30:00,37.1,14.4,30.25,WSW,256,1.0,1.0,39,0.00,,,0.00,49,Wunderground v.1.15,2013-02-18 18:30:00,
2013-02-18 13:40:00,38.4,15.0,30.25,WSW,244,1.0,3.0,38,0.00,,,0.00,49,Wunderground v.1.15,2013-02-18 18:40:00,
2013-02-18 13:50:00,39.6,16.0,30.24,South,188,1.0,1.0,38,0.00,,,0.00,67,Wunderground v.1.15,2013-02-18 18:50:00,
2013-02-18 14:00:00,39.4,16.5,30.23,SSE,168,1.0,1.0,39,0.00,,,0.00,62,Wunderground v.1.15,2013-02-18 19:00:00,
2013-02-18 14:10:00,39.8,15.6,30.23,SE,132,2.0,4.0,37,0.00,,,0.00,214,Wunderground v.1.15,2013-02-18 19:10:00,
2013-02-18 14:20:00,40.2,17.2,30.23,South,170,2.0,2.0,39,0.00,,,0.00,63,Wunderground v.1.15,2013-02-18 19:20:00,
2013-02-18 14:30:00,40.2,16.0,30.23,SSW,192,1.0,1.0,37,0.00,,,0.00,107,Wunderground v.1.15,2013-02-18 19:30:00,
2013-02-18 14:40:00,40.7,15.8,30.23,South,173,1.0,1.0,36,0.00,,,0.00,84,Wunderground v.1.15,2013-02-18 19:40:00,
2013-02-18 14:50:00,41.3,16.3,30.22,SW,221,2.0,2.0,36,0.00,,,0.00,105,Wunderground v.1.15,2013-02-18 19:50:00,
2013-02-18 15:00:00,41.4,17.7,30.22,SSE,149,2.0,3.0,38,0.00,,,0.00,183,Wunderground v.1.15,2013-02-18 20:00:00,
2013-02-18 15:10:00,41.6,17.8,30.22,SW,221,2.0,3.0,38,0.00,,,0.00,336,Wunderground v.1.15,2013-02-18 20:10:00,
2013-02-18 15:20:00,42.2,17.8,30.21,SSW,213,2.0,2.0,37,0.00,,,0.00,348,Wunderground v.1.15,2013-02-18 20:20:00,
2013-02-18 15:30:00,42.3,17.2,30.21,SSE,152,1.0,2.0,36,0.00,,,0.00,178,Wunderground v.1.15,2013-02-18 20:30:00,
2013-02-18 15:40:00,42.5,16.7,30.20,SSE,162,1.0,1.0,35,0.00,,,0.00,341,Wunderground v.1.15,2013-02-18 20:40:00,
2013-02-18 15:50:00,42.6,16.8,30.19,SSW,205,1.0,1.0,35,0.00,,,0.00,211,Wunderground v.1.15,2013-02-18 20:50:00,
2013-02-18 16:00:00,42.1,16.4,30.19,SSE,149,1.0,1.0,35,0.00,,,0.00,236,Wunderground v.1.15,2013-02-18 21:00:00,
2013-02-18 16:10:00,42.6,16.2,30.19,SSE,155,1.0,1.0,34,0.00,,,0.00,230,Wunderground v.1.15,2013-02-18 21:10:00,
2013-02-18 16:20:00,42.6,16.8,30.19,SSE,155,1.0,1.0,35,0.00,,,0.00,167,Wunderground v.1.15,2013-02-18 21:20:00,
2013-02-18 16:30:00,42.1,17.0,30.19,SSE,147,2.0,2.0,36,0.00,,,0.00,102,Wunderground v.1.15,2013-02-18 21:30:00,
2013-02-18 16:50:00,41.4,17.0,30.19,SSE,149,1.0,1.0,37,0.00,,,0.00,76,Wunderground v.1.15,2013-02-18 21:50:00,
2013-02-18 17:00:00,41.3,17.6,30.19,SE,144,1.0,1.0,38,0.00,,,0.00,54,Wunderground v.1.15,2013-02-18 22:00:00,
2013-02-18 17:10:00,41.1,17.4,30.19,SSE,149,1.0,1.0,38,0.00,,,0.00,42,Wunderground v.1.15,2013-02-18 22:10:00,
2013-02-18 17:20:00,40.9,17.2,30.20,SSE,150,1.0,2.0,38,0.00,,,0.00,35,Wunderground v.1.15,2013-02-18 22:20:00,
2013-02-18 17:30:00,40.2,17.8,30.19,SSE,149,1.0,1.0,40,0.00,,,0.00,21,Wunderground v.1.15,2013-02-18 22:30:00,
2013-02-18 17:40:00,39.7,17.3,30.19,SE,132,1.0,2.0,40,0.00,,,0.00,11,Wunderground v.1.15,2013-02-18 22:40:00,
2013-02-18 17:50:00,39.2,16.9,30.19,SE,134,1.0,1.0,40,0.00,,,0.00,0,Wunderground v.1.15,2013-02-18 22:50:00,
2013-02-18 18:00:00,38.6,16.9,30.18,SE,133,1.0,1.0,41,0.00,,,0.00,0,Wunderground v.1.15,2013-02-18 23:00:00,
2013-02-18 18:10:00,38.4,16.7,30.19,SE,129,1.0,1.0,41,0.00,,,0.00,0,Wunderground v.1.15,2013-02-18 23:10:00,
2013-02-18 18:20:00,38.0,16.9,30.19,SE,134,0.0,0.0,42,0.00,,,0.00,0,Wunderground v.1.15,2013-02-18 23:20:00,
2013-02-18 18:30:00,37.7,16.6,30.18,SE,125,0.0,2.0,42,0.00,,,0.00,0,Wunderground v.1.15,2013-02-18 23:30:00,
2013-02-18 18:40:00,37.6,16.5,30.19,ESE,123,1.0,2.0,42,0.00,,,0.00,0,Wunderground v.1.15,2013-02-18 23:40:00,
2013-02-18 18:50:00,37.6,16.5,30.18,SSE,160,1.0,1.0,42,0.00,,,0.00,0,Wunderground v.1.15,2013-02-18 23:50:00,
2013-02-18 19:00:00,37.1,16.6,30.18,SE,138,0.0,0.0,43,0.00,,,0.00,0,Wunderground v.1.15,2013-02-19 00:00:00,
2013-02-18 19:10:00,37.4,16.4,30.17,SSE,148,1.0,1.0,42,0.00,,,0.00,0,Wunderground v.1.15,2013-02-19 00:10:00,
2013-02-18 19:20:00,37.4,16.4,30.17,SE,135,1.0,1.0,42,0.00,,,0.00,0,Wunderground v.1.15,2013-02-19 00:20:00,
2013-02-18 19:30:00,37.3,16.8,30.16,SE,142,1.0,2.0,43,0.00,,,0.00,0,Wunderground v.1.15,2013-02-19 00:30:00,
2013-02-18 19:40:00,37.2,16.7,30.17,SE,136,1.0,1.0,43,0.00,,,0.00,0,Wunderground v.1.15,2013-02-19 00:40:00,
2013-02-18 19:50:00,37.1,17.2,30.17,SE,139,0.0,1.0,44,0.00,,,0.00,0,Wunderground v.1.15,2013-02-19 00:50:00,
2013-02-18 20:00:00,37.3,17.4,30.15,SSE,152,1.0,1.0,44,0.00,,,0.00,0,Wunderground v.1.15,2013-02-19 01:00:00,
2013-02-18 20:10:00,37.5,18.1,30.16,SE,146,1.0,3.0,45,0.00,,,0.00,0,Wunderground v.1.15,2013-02-19 01:10:00,
2013-02-18 20:20:00,38.0,18.5,30.15,SE,127,1.0,3.0,45,0.00,,,0.00,0,Wunderground v.1.15,2013-02-19 01:20:00,
2013-02-18 20:30:00,38.7,19.2,30.14,SE,142,2.0,2.0,45,0.00,,,0.00,0,Wunderground v.1.15,2013-02-19 01:30:00,
2013-02-18 20:40:00,39.1,19.5,30.14,SSE,147,1.0,1.0,45,0.00,,,0.00,0,Wunderground v.1.15,2013-02-19 01:40:00,
2013-02-18 20:50:00,39.4,19.8,30.14,SE,140,2.0,2.0,45,0.00,,,0.00,0,Wunderground v.1.15,2013-02-19 01:50:00,
2013-02-18 21:00:00,39.4,20.3,30.14,SE,143,1.0,3.0,46,0.00,,,0.00,0,Wunderground v.1.15,2013-02-19 02:00:00,
2013-02-18 21:10:00,39.3,20.7,30.14,South,180,2.0,4.0,47,0.00,,,0.00,0,Wunderground v.1.15,2013-02-19 02:10:00,
2013-02-18 21:30:00,39.4,21.3,30.13,SSE,167,1.0,2.0,48,0.00,,,0.00,0,Wunderground v.1.15,2013-02-19 02:30:00,
2013-02-18 21:40:00,39.2,21.1,30.13,SSE,150,1.0,1.0,48,0.00,,,0.00,0,Wunderground v.1.15,2013-02-19 02:40:00,
2013-02-18 21:50:00,38.8,21.3,30.12,SSE,156,1.0,1.0,49,0.00,,,0.00,0,Wunderground v.1.15,2013-02-19 02:50:00,
2013-02-18 22:00:00,38.7,21.6,30.12,SE,144,1.0,1.0,50,0.00,,,0.00,0,Wunderground v.1.15,2013-02-19 03:00:00,
2013-02-18 22:10:00,38.8,22.2,30.12,SSE,151,0.0,1.0,51,0.00,,,0.00,0,Wunderground v.1.15,2013-02-19 03:10:00,
2013-02-18 22:20:00,39.0,22.8,30.12,SSE,157,0.0,0.0,52,0.00,,,0.00,0,Wunderground v.1.15,2013-02-19 03:20:00,
2013-02-18 22:30:00,38.9,22.8,30.12,SSE,155,0.0,2.0,52,0.00,,,0.00,0,Wunderground v.1.15,2013-02-19 03:30:00,
2013-02-18 22:40:00,39.6,23.4,30.11,SSE,154,0.0,0.0,52,0.00,,,0.00,0,Wunderground v.1.15,2013-02-19 03:40:00,
2013-02-18 22:50:00,39.5,23.3,30.10,SSE,154,0.0,0.0,52,0.00,,,0.00,0,Wunderground v.1.15,2013-02-19 03:50:00,
2013-02-18 23:00:00,39.1,23.4,30.11,SSE,154,0.0,0.0,53,0.00,,,0.00,0,Wunderground v.1.15,2013-02-19 04:00:00,
2013-02-18 23:50:00,36.2,22.8,30.09,SSE,154,0.0,0.0,58,0.00,,,0.00,0,Wunderground v.1.15,2013-02-19 04:50:00,